www.pogodaiklimat.ru

Погода и климат >> Архив погоды >> Франция >> Тулуза аэропорт


ПОГОДА в Тулуза аэропорту

  • Прогноз погоды в Тулуза аэропорту
  • Монитор погоды в Тулуза аэропорту

АРХИВ ПОГОДЫ в Тулуза аэропорту

Время (UTC), дата Ветер
(напр.,м/с)
 
Видим.   Явления Облачность Т
(С)
Тd
(С)
f
(%)
Тe
(С)
Тes
(С)
Комфортность P
(гПа)
Po
(гПа)
Тmin
(С)
Tmax
(С)
R
(мм)
R24
(мм)
S
(см)
16 14.09 В 4
{8}
55 км н/о +30.5 +12.4 33 +31 +31 жарко 1022.1 1002.6
17 14.09 ЮВ 3
{7}
55 км н/о +28.9 +11.9 35 +30 +30 жарко 1022.5 1002.8
20 14.09 ЮВ 4
{8}
60 км н/о +25.1 +8.6 35 +26 +26 жарко 1023.3 1003.4
22 14.09 ЮВ 3
{7}
55 км н/о +22.7 +11.1 48 +25 +25 комфорт 1023.3 1003.2
23 14.09 ЮВ 3
{6}
55 км н/о +22.1 +11.5 51 +24 +24 комфорт 1023.4 1003.3
01 15.09 В 1
{5}
50 км н/о +19.5 +10.8 57 +22 +22 комфорт 1022.7 1002.4
02 15.09 С 2
{2}
50 км н/о +17.3 +11.1 67 +18 +18 1022.8 1002.4
04 15.09 штиль 0
{3}
45 км н/о +17.7 +11.0 65 +18 +18 1022.2 1001.8
05 15.09 Ю 1
{3}
45 км н/о +17.6 +11.2 66 +19 +19 1022.4 1002.0
07 15.09 ЮВ 1
{2}
19 км 8/0
[]
+19.0 +12.7 67 +22 +22 комфорт 1022.5 1002.2
08 15.09 Ю 1
{3}
45 км ?/? +20.9 +13.3 62 +25 +25 комфорт 1022.5 1002.3
10 15.09 ЮВ 4
{8}
50 км н/о +27.1 +13.1 42 +29 +29 жарко 1022.1 1002.3
11 15.09 ЮВ 5
{10}
18 км н/о +28.4 +12.3 37 +30 +30 жарко 1022.1 1002.4
13 15.09 ЮВ 4
{8}
19 км 8/0
[]
+28.8 +13.5 39 +30 +35 жарко 1020.9 1001.3
14 15.09 ЮВ 4
{8}
55 км н/о +29.2 +13.4 38 +31 +31 жарко 1020.2 1000.6
16 15.09 ЮВ 4
{9}
55 км н/о +29.6 +11.6 33 +30 +30 жарко 1018.9 999.4
17 15.09 В 4
{9}
55 км н/о +28.1 +11.2 35 +29 +29 жарко 1019.3 999.6
19 15.09 ЮВ 3
{6}
55 км н/о +24.8 +10.3 40 +26 +26 жарко 1020.7 1000.8
20 15.09 ЮВ 3
{5}
55 км н/о +23.3 +10.4 44 +25 +25 комфорт 1020.6 1000.6
22 15.09 ЮВ 1
{3}
18 км н/о +20.7 +10.2 51 +23 +23 комфорт 1021.1 1000.9
23 15.09 Ю 3
{5}
55 км н/о +20.4 +11.3 56 +23 +23 комфорт 1020.6 1000.4
01 16.09 ЮЗ 1
{4}
55 км н/о +19.1 +11.4 61 +21 +21 комфорт 1020.7 1000.4
02 16.09 Ю 1
{2}
55 км н/о +17.7 +11.9 69 +19 +19 1020.7 1000.3
04 16.09 Ю 1
{2}
45 км н/о +16.8 +12.3 75 +18 +18 1020.3 999.9
05 16.09 ЮЗ 1
{2}
18 км н/о +16.4 +12.4 77 +17 +17 1020.5 1000.0
07 16.09 Ю 1
{2}
19 км н/о +17.3 +13.0 76 +19 +19 1020.6 1000.2
08 16.09 Ю 1
{2}
35 км н/о +20.0 +14.1 69 +23 +23 комфорт 1020.5 1000.3
10 16.09 Ю 1
{3}
35 км н/о +24.8 +15.1 55 +28 +28 жарко 1020.0 1000.1
11 16.09 ЮВ 2
{4}
45 км н/о +26.6 +15.3 50 +29 +29 жарко 1019.3 999.6
13 16.09 В 2
{3}
17 км н/о +28.8 +15.0 43 +31 +31 жарко 1017.8 998.2
14 16.09 З 2
{3}
45 км н/о +30.2 +14.7 39 +32 +32 жарко 1017.1 997.6
16 16.09 ЮЗ 1
{5}
45 км н/о +30.9 +14.5 37 +33 +33 душно 1016.4 997.0
17 16.09 З 2
{5}
45 км н/о +29.9 +13.6 37 +31 +31 жарко 1016.5 997.0
19 16.09 З 2
{3}
40 км н/о +26.6 +14.0 46 +29 +29 жарко 1017.4 997.7
20 16.09 З 2
{3}
40 км н/о +23.7 +13.6 53 +26 +26 жарко 1017.8 997.9
22 16.09 Ю 2
{2}
19 км н/о +21.1 +15.0 68 +24 +24 комфорт 1018.5 998.4
23 16.09 Ю 2
{3}
40 км н/о +20.9 +15.0 69 +25 +25 комфорт 1018.4 998.3
01 17.09 Ю 2
{3}
19 км н/о +20.4 +15.4 73 +24 +24 комфорт 1017.8 997.7
02 17.09 Ю 3
{4}
35 км н/о +19.8 +15.4 76 +22 +22 комфорт 1017.4 997.3
04 17.09 ЮВ 1
{4}
19 км н/о +18.4 +15.5 83 +21 +21 комфорт 1017.3 997.1
05 17.09 Ю 1
{2}
19 км н/о +17.9 +15.5 86 +20 +20 1017.6 997.3
07 17.09 Ю 2
{3}
18 км н/о +19.8 +16.6 82 +23 +23 комфорт 1017.8 997.7
08 17.09 З 2
{4}
40 км н/о +22.3 +16.3 69 +27 +27 душно 1018.1 998.1
10 17.09 З 1
{4}
45 км н/о +26.9 +16.5 53 +30 +30 душно 1017.3 997.6
11 17.09 С 2
{4}
45 км н/о +29.0 +15.9 45 +32 +32 душно 1016.4 996.9
13 17.09 С 3
{6}
45 км н/о +31.2 +14.8 37 +33 +33 жарко 1015.2 995.8
14 17.09 С 2
{5}
45 км н/о +31.6 +15.1 37 +34 +34 душно 1014.5 995.2
16 17.09 СВ 1
{5}
45 км н/о +32.2 +14.3 34 +34 +34 душно 1013.6 994.3
17 17.09 СЗ 1
{3}
50 км н/о +30.9 +14.1 36 +33 +33 душно 1013.3 994.0
20 17.09 З 1
{2}
19 км 9/0
[]
+24.8 +15.4 56 +28 +28 жарко 1014.2 994.5
22 17.09 Ю 2
{4}
35 км 8/0 2000 м
[]
+23.3 +15.9 63 +28 +28 душно 1014.5 994.7
23 17.09 ЮЗ 2
{4}
40 км 10/0
[]
+23.3 +16.1 64 +28 +28 душно 1014.5 994.7
01 18.09 ЮЗ 2
{4}
18 км 10/0
[]
+22.6 +16.8 70 +27 +27 душно 1014.1 994.2
02 18.09 ЮЗ 2
{3}
35 км 8/0
[]
+22.1 +17.5 75 +27 +27 душно 1014.1 994.2
04 18.09 З 2
{5}
40 км н/о +21.6 +16.5 73 +25 +25 комфорт 1013.8 993.9
05 18.09 штиль 0
{3}
35 км н/о +20.5 +16.5 78 +23 +23 комфорт 1014.2 994.2
07 18.09 СЗ 3
{4}
35 км 9/0
[]
+21.7 +16.6 73 +26 +26 душно 1015.6 995.6
08 18.09 СЗ 3
{5}
45 км 10/10 600 м
[]
+22.3 +16.3 69 +27 +27 душно 1016.1 996.2
10 18.09 СЗ 3
{5}
45 км 8/0
[]
+24.6 +16.3 60 +28 +32 душно 1016.1 996.3
11 18.09 З 3
{6}
40 км 9/0
[]
+24.8 +16.2 59 +28 +33 жарко 1016.1 996.3
13 18.09 СЗ 3
{5}
45 км н/о +27.2 +16.8 53 +31 +31 душно 1015.2 995.6
14 18.09 З 3
{5}
45 км н/о +28.8 +16.7 48 +32 +32 душно 1015.2 995.7
16 18.09 З 3
{7}
45 км 10/0
[]
+28.6 +16.5 48 +32 +33 душно 1014.4 994.9
17 18.09 З 4
{7}
50 км н/о +27.7 +16.3 50 +31 +31 душно 1014.5 995.0
19 18.09 ЮЗ 2
{4}
45 км 9/0 2000 м
[]
+25.1 +16.0 57 +28 +28 жарко 1015.7 996.0
20 18.09 ЮЗ 2
{5}
40 км н/о +24.1 +17.1 65 +28 +28 душно 1016.3 996.5
22 18.09 ЮЗ 2
{4}
35 км 10/10 1500 м
[]
+22.4 +18.2 77 +28 +28 душно 1017.2 997.3
23 18.09 Ю 6
{10}
17 км 9/9 600 м
[]
+20.9 +15.4 71 +24 +24 комфорт 1018.6 998.5
01 19.09 ЮЗ 3
{7}
55 км 10/0
[]
+19.1 +15.2 78 +21 +21 комфорт 1017.8 997.6
02 19.09 штиль 0
{4}
45 км н/о +18.2 +14.9 81 +18 +18 1017.5 997.2
04 19.09 СЗ 3
{4}
35 км н/о +17.5 +14.4 82 +18 +18 1017.4 997.1
05 19.09 СЗ 2
{3}
40 км н/о +16.8 +14.3 85 +17 +17 1017.9 997.5
07 19.09 З 2
{5}
50 км 10/10 300 м
[]
+17.6 +14.3 81 +18 +18 1018.8 998.5
08 19.09 СЗ 3
{5}
40 км 10/10 300 м
[]
+18.4 +14.3 77 +19 +19 1019.4 999.1
10 19.09 ЮЗ 2
{5}
45 км н/о +22.2 +14.8 63 +26 +26 душно 1019.0 999.0
11 19.09 З 3
{6}
50 км н/о +24.1 +14.8 56 +27 +27 жарко 1018.5 998.6
13 19.09 С 2
{5}
19 км н/о +27.3 +14.3 45 +30 +30 душно 1017.1 997.5
14 19.09 В 1
{5}
18 км н/о +27.3 +13.3 42 +29 +29 жарко 1016.4 996.8
16 19.09 СВ 3
{6}
50 км н/о +28.0 +13.1 40 +30 +30 жарко 1015.9 996.3
17 19.09 В 2
{5}
50 км н/о +27.2 +13.2 42 +29 +29 жарко 1016.1 996.5
19 19.09 Ю 1
{2}
16 км н/о +23.9 +13.1 51 +26 +26 жарко 1017.3 997.4
20 19.09 Ю 2
{3}
11 км н/о +21.4 +13.8 62 +24 +24 комфорт 1017.7 997.7
22 19.09 Ю 2
{2}
40 км н/о +19.5 +14.3 72 +22 +22 комфорт 1017.9 997.7
23 19.09 Ю 2
{3}
40 км н/о +18.7 +14.6 77 +20 +20 1017.9 997.7
01 20.09 ЮВ 3
{6}
40 км н/о +19.6 +15.5 77 +22 +22 комфорт 1018.1 997.9
02 20.09 ЮВ 5
{10}
45 км н/о +20.0 +12.5 62 +22 +22 комфорт 1017.5 997.4
04 20.09 ЮВ 4
{10}
55 км н/о +18.8 +10.6 59 +19 +19 1017.3 997.1
05 20.09 ЮВ 4
{9}
50 км н/о +18.4 +10.0 58 +19 +19 1017.5 997.2
07 20.09 ЮВ 4
{9}
45 км н/о +19.2 +9.9 55 +20 +20 1017.8 997.6
08 20.09 ЮВ 6
{14}
40 км н/о +20.7 +11.6 56 +23 +23 комфорт 1018.1 998.0
10 20.09 ЮВ 7
{14}
11 км н/о +23.8 +13.6 53 +26 +26 жарко 1017.6 997.7
14 20.09 ЮВ 7
{13}
19 км н/о +27.3 +16.0 50 +31 +31 душно 1015.2 995.6
20 20.09 ЮВ 6
{14}
40 км н/о +20.5 +15.9 75 +23 +23 комфорт 1015.0 995.0
22 20.09 ЮВ 5
{12}
30 км н/о +20.7 +16.3 76 +24 +24 комфорт 1014.6 994.6
01 21.09 ЮВ 6
{15}
29 км н/о +20.3 +16.5 79 +23 +23 комфорт 1013.5 993.5
02 21.09 ЮВ 6
{13}
18 км н/о +20.1 +16.3 79 +23 +23 комфорт 1013.1 993.1
04 21.09 ЮВ 7
{15}
19 км 9/9 300 м
[]
+20.1 +16.7 81 +23 +23 комфорт 1012.4 992.4
05 21.09 ЮВ 5
{15}
30 км 9/9 300 м
[]
+20.1 +16.5 80 +23 +23 комфорт 1012.2 992.2

 

Местоположение метеостанции Тулуза аэропорт (Франция): широта 43.53 долгота 1.37 высота над уровнем моря 166 м.

В архиве по умолчанию представлена погода в Тулуза аэропорту за последнюю неделю. Архивные данные за месяц целиком и за предыдущие месяцы, начиная с января 2011 года, Вы можете получить, выбрав интересующий диапазон дат из раскрывающегося списка и нажав кнопку "Ввод!".


*Определитесь, кто Вы:
робот инопланетянин человек

Внимание! Время в таблицах - всемирное. Для получения местного времени необходимо прибавить поправку, которая равна 1 ч.

Смотрите также архив погоды в соседних городах и на ближайших метеорологических станциях:

Погода в Тулузе (Франция) (11 км)
Погода в Мюре-Лерм (Франция) (13 км)
Погода в Монтобане (Франция) (56 км)
Погода в Сен-Жироне (Франция) (63 км)
Погода в Оше (Франция) (64 км)
Погода в Альби (Франция) (74 км)
Погода в Каркассоне (Франция) (84 км)
Погода в Ажане (Франция) (95 км)
Погода в Артьесе (Испания) (101 км)
Погода в Тарбе (Франция) (117 км)

Пояснения к столбцам:

Ветер - указаны скорость ветра в м/с - средняя за 10 мин, порывы в срок и между сроками (в фигурных скобках) и направление, откуда дует ветер: С - северный, СВ - северо-восточный, В - восточный, ЮВ - юго-восточный, Ю - южный, ЮЗ - юго-западный, З - западный, СЗ - северо-западный.
Видимость - горизонтальная дальность видимости в метрах или километрах. При видимости от 1 до 10 км при отсутствии осадков обычно наблюдается дымка, при ухудшении видимости до 1 км и менее - туман. В сухую погоду видимость может ухудшаться дымом, пылью или мглою.
Явления - указаны атмосферные явления, наблюдавшиеся в срок или в последний час перед сроком; фигурными скобками обозначены явления, наблюдавшиеся между сроками (за 1-3 часа до срока); квадратными скобками обозначены град или гололедные отложения с указанием их диаметра в мм.
Облачность - указаны через наклонную черту общая и нижняя облачность в баллах и высота нижней границы облаков в метрах; квадратными скобками обозначены формы облаков: Ci - перистые, Cs - перисто-слоистые, Cc - перисто-кучевые, Ac - высококучевые, As - высокослоистые, Sc - слоисто-кучевые, Ns - слоисто-дождевые, Cu - кучевые, Cb - кучево-дождевые. Подробнее классификацию облаков см. в Атласе облаков (PDF).
T - Температура воздуха - температура, измеренная на высоте 2 м над землей.
Td - Температура точки росы - температура, при понижении до которой содержащийся в воздухе водяной пар достигнет насыщения.
f - Относительная влажность воздуха - влажноcть воздуха, измеренная на высоте 2 м над землей.
Te - Эффективная температура - температура, которую ощущает одетый по сезону человек в тени. Характеристика душности погоды. При расчете учитывается влияние влажности воздуха и скорости ветра на теплоощущения человека.
Tes - Эффективная температура на солнце - температура, которую ощущает человек, с поправкой на солнечный нагрев. Характеристика знойности погоды. Зависит от высоты солнца над горизонтом, облачности и скорости ветра. Ночью, в пасмурную погоду, а также при ветре 12 м/с и более поправка равна нулю.
P - Атмосферное давление - приведенное к уровню моря атмосферное давление.
Po - Атмосферное давление - измеренное на уровне метеостанции атмосферное давление.
Tmin - Минимальная температура - минимум температуры воздуха на высоте 2 м над землей.
Tmax - Максимальная температура - максимум температуры воздуха на высоте 2 м над землей.
R - Количество осадков - Количество выпавших осадков за период времени, мм. При наведении курсора мыши на число - период времени, за который выпало указанное количество осадков.
R24 - Количество осадков - Количество выпавших осадков за 24 часа, мм.
S - Снежный покров - Высота снежного покрова, см. При наведении курсора мыши на число - состояние снежного покрова и степень покрытия местности в баллах.